Location: Stigler
(35.2540°N, 95.1230°W)
Time: 00:32:20
(UTC-05:00)

Daily predictions for brighter satellites

Satellite Brightness Start Highest point End
(mag) Time Altitude Azimuth Time Altitude Azimuth Time Altitude Azimuth
FALCON 9 R/B 4.2 03:17:39 77° ESE 03:17:39 77° ESE 03:48:35 10° E
CENTAUR R/B 4.3 03:43:40 25° N 03:43:40 25° N 03:46:43 10° NNE
Cosmos 2074 Rocket 4.1 04:29:11 10° N 04:35:25 69° E 04:35:49 67° ESE
Cosmos 2322 Rocket 4.2 04:40:45 17° NNW 04:40:45 17° NNW 04:42:35 10° N
SL-16 R/B 4.1 04:46:02 18° NNW 04:46:02 18° NNW 04:48:00 10° N
Cosmos 2237 4.3 04:48:29 76° NE 04:48:29 76° NE 04:53:48 10° NNE
Cosmos 2219 Rocket 3.5 04:48:29 26° SE 04:50:37 36° ESE 04:55:40 10° NE
COSMOS 2428 2.8 04:51:56 70° SE 04:52:10 71° ESE 04:57:50 10° NNE
Resurs 1-4 Rocket 4.2 04:48:11 10° NNW 04:49:17 15° NNW 04:49:17 15° NNW
Okean O Rocket 2.3 04:50:09 10° NNE 04:54:01 52° ENE 04:54:01 52° ENE
CZ-2D R/B 4.2 04:50:35 10° NNW 04:52:07 17° NNW 04:52:07 17° NNW
Cosmos 1844 Rocket 4.1 04:55:51 10° N 05:01:00 37° ENE 05:06:06 10° SE
Lacrosse 4 Rocket 2.8 05:03:25 31° SE 05:03:25 31° SE 05:05:52 10° SE
DELTA 2 R/B (1) 3.5 05:02:43 70° NNW 05:02:51 70° NNW 05:08:23 10° ENE
Cosmos 2360 Rocket 3.1 05:09:38 33° NW 05:09:38 33° NW 05:13:42 10° N
Cosmos 2184 Rocket 3.9 05:05:55 10° NNW 05:12:01 61° W 05:12:43 58° WSW
ADEOS II 2.1 05:11:18 10° NNE 05:16:35 80° ESE 05:18:43 37° S
Cosmos 2237 Rocket 3.6 05:13:25 10° SSE 05:18:32 36° ESE 05:23:41 10° NE
Meteor 2-4 Rocket 4.4 05:19:53 10° S 05:25:20 54° E 05:30:41 10° NNE
Cosmos 1536 Rocket 4.4 05:30:12 36° NW 05:30:12 36° NW 05:33:23 10° N
ATLAS 5 CENTAUR R/B 4.3 05:24:08 10° N 05:29:26 31° NE 05:35:05 10° ESE
Cosmos 2208 Rocket 4.2 05:29:25 49° W 05:30:11 53° WNW 05:35:31 10° N
Cosmos 1666 3.9 05:26:44 10° N 05:30:26 43° E 05:34:08 10° SSE
GOES 2 Rocket 3.9 05:30:17 37° SSW 05:30:52 39° S 05:36:07 10° ESE
USA 215 3.4 05:26:29 10° SE 05:33:01 73° NE 05:39:33 10° NW
OAO 3 Copernicus 4.2 05:35:00 49° W 05:36:23 89° S 05:41:26 10° E
Cosmos 1743 2.5 05:34:05 10° N 05:37:56 82° W 05:40:33 20° S
MTI 4.5 05:40:00 43° NNW 05:40:00 43° NNW 05:42:20 10° NNW
PAYLOAD B 4.3 05:34:18 10° N 05:39:49 59° WNW 05:42:35 29° SW
Cosmos 2333 Rocket 2.3 05:35:41 19° SSW 05:39:51 79° ESE 05:45:36 10° NNE
USA 229 DEB 3.6 05:38:14 27° SW 05:42:15 80° WNW 05:49:13 10° NNE
USA 229 3.6 05:38:19 27° SW 05:42:21 80° WNW 05:49:18 10° NNE
PSLV R/B 3.6 05:40:24 10° N 05:44:39 54° WNW 05:45:55 39° SW
CZ-4B R/B 3.9 05:42:03 10° N 05:44:13 26° NW 05:44:13 26° NW
Cosmos 2154 Rocket 3.9 05:39:54 10° NNW 05:46:00 63° W 05:52:06 10° S
Meteor 1-31 Rocket 3.3 05:44:10 10° NNE 05:47:56 59° E 05:51:41 10° S
Okean 1-7 Rocket 3.5 05:45:35 13° S 05:49:40 82° W 05:54:10 10° N
EO 1 Del DPAF 3.4 05:48:43 28° SSW 05:50:25 48° W 05:54:11 10° NNW
OTV 4 2.1 05:56:10 20° S 05:56:49 22° SSE 05:59:04 10° E
NOSS 3-1 (C) 4.1 05:51:57 10° S 05:57:24 52° ESE 06:03:24 10° NE
Thor Agena Rocket 4.5 05:54:19 10° SE 05:59:10 50° ENE 06:04:01 10° N
Meteor PRIRODA 3.7 05:57:38 10° N 06:01:21 60° WNW 06:04:11 16° SSW
Hubble Space Telescope 2.6 05:59:49 15° SSW 06:01:44 21° SSE 06:04:53 10° ESE
Cosmos 1606 Rocket 4.5 05:59:13 10° N 06:03:36 52° E 06:07:58 10° SSE
Cosmos 2181 Rocket 4.0 05:57:46 10° SSW 06:03:52 62° W 06:10:07 10° N
SL-8 Rocket 4.1 05:59:37 10° N 06:05:51 82° E 06:12:00 10° S
Cosmos 468 Rocket 4.0 06:02:26 15° SSW 06:06:41 58° WNW 06:11:51 10° N
Tiangong 2 1.1 06:06:42 23° WNW 06:08:27 74° NNE 06:11:35 10° ESE
Cosmos 1844 3.6 06:03:54 10° NNW 06:09:39 74° WSW 06:15:17 10° SSE
Iridium 2 3.9 06:05:52 10° N 06:09:41 74° E 06:13:30 10° S
Cosmos 1898 Rocket 3.4 06:05:49 10° NNW 06:11:01 85° WSW 06:16:11 10° SSE
GPS 2-04 Rocket1 3.0 06:10:39 22° SW 06:13:00 55° SSE 06:16:43 10° E
SL-16 R/B 3.3 06:09:38 10° S 06:14:59 46° ESE 06:20:22 10° NE
CZ-4B R/B 4.1 06:11:27 10° N 06:16:17 30° WNW 06:20:11 14° WSW
ERS-2 2.6 06:16:34 10° N 06:20:03 39° WNW 06:23:30 10° SW
VEP-3 4.1 06:12:51 14° WSW 06:23:51 38° S 06:29:12 10° ESE
Cosmos 1980 3.9 06:19:59 10° SW 06:25:28 52° WNW 06:30:59 10° N
Cosmos 2341 Rocket 4.4 06:21:02 10° NNW 06:26:43 38° W 06:32:22 10° SSW
Cosmos 2228 4.3 06:23:55 10° N 06:28:06 46° E 06:32:17 10° SSE
Okean O Rocket 3.5 06:28:41 10° NW 06:30:23 12° WNW 06:31:30 11° W
COSMO-SKYMED 1 3.1 06:26:56 10° SSE 06:31:13 64° ENE 06:35:31 10° N
Cosmos 2218 Rocket 4.0 06:26:40 10° N 06:33:01 73° W 06:39:17 10° S
Cosmos 1025 Rocket 3.8 06:30:01 10° SW 06:33:53 31° WNW 06:37:49 10° NNW
Cosmos 1763 Rocket 3.5 06:29:05 10° SSW 06:34:05 62° WNW 06:39:09 10° N
Cosmos 2219 Rocket 3.2 06:30:16 12° WSW 06:34:34 27° WNW 06:39:17 10° N
Cosmos 1437 3.5 06:31:55 10° SW 06:34:55 33° WNW 06:37:55 10° NNW
COSMOS 2428 4.4 06:33:59 11° W 06:36:59 15° NW 06:40:15 10° NNW
Cosmos 1726 Rocket 3.5 06:34:08 10° N 06:38:34 72° W 06:43:00 10° S
Cosmos 1809 Rocket 4.5 06:33:42 10° N 06:39:55 87° W 06:46:05 10° S
Cosmos 1937 Rocket 3.5 06:34:55 10° NNW 06:40:11 64° WSW 06:45:22 10° S
Meteor 1-28 Rocket 3.7 06:38:21 10° SSE 06:42:06 67° ENE 06:45:54 10° N
Okean-O 3.5 06:40:43 10° N 06:44:36 30° WNW 06:48:28 10° SW
Cosmos 1844 Rocket 3.6 06:40:09 10° NW 06:44:37 25° WSW 06:49:04 10° SSW
Cosmos 1892 Rocket 3.8 06:40:37 10° SSW 06:44:47 48° W 06:49:01 10° N
Radarsat Rocket 3.9 06:40:53 10° NNE 06:46:46 76° WNW 06:52:36 10° SSW
Cosmos 841 Rocket 3.6 06:42:59 10° SSW 06:48:03 57° WNW 06:53:08 10° N
DELTA 2 R/B (1) 4.1 06:44:16 10° WNW 06:49:43 55° N 06:55:09 10° E
